Weather History for Elizabethton, TN

Change the Weather History Date:

Sunday, September 1, 2013

  Actual Average (KTRI) Record (KTRI)
Temperature  
Mean Temperature 72 °F 72 °F  
Max Temperature 80 °F 84 °F 98 °F (1953)
Min Temperature 64 °F 60 °F 47 °F (1999)
Degree Days  
Heating Degree Days 0 0  
Month to date heating degree days 0  
Since 1 July heating degree days 1  
Cooling Degree Days 7 7  
Month to date cooling degree days 7  
Year to date cooling degree days 859  
Growing Degree Days 22 (Base 50)    
Moisture  
Dew Point 66 °F    
Average Humidity 91    
Maximum Humidity 100    
Minimum Humidity 69    
Precipitation  
Precipitation 0.00 in 0.11 in 1.80 in (1982)
Month to date precipitation 0.11  
Year to date precipitation 29.56  
Snow  
Snow 0.00 in 0.00 in - ()
Month to date snowfall 0.0  
Since 1 July snowfall 0.0  
Since 1 September snowfall 0.0  
Snow Depth -    
Sea Level Pressure  
Sea Level Pressure 29.94 in    
Wind  
Wind Speed 2 mph (NE)    
Max Wind Speed 9 mph    
Max Gust Speed -    
Visibility 8 miles    
Events Rain    
T = Trace of Precipitation, MM = Missing Value Source: NWS Daily Summary

Daily Weather History Graph

Daily Weather History Graph

Search for Another Location

Airport:

Trip Planner

Search our weather history database for the weather conditions in past years. The results will help you decide how hot, cold, wet, or windy it might be!

Date:

Astronomy

Sep. 01, 2013 Rise Set
Actual Time 7:00 AM EDT 7:56 PM EDT
Civil Twilight 6:33 AM EDT 8:22 PM EDT
Nautical Twilight 6:02 AM EDT 8:53 PM EDT
Astronomical Twilight 5:30 AM EDT 9:25 PM EDT
Moon 3:25 AM EDT (9/1) 5:29 PM EDT (9/1)
Length of Visible Light 13h 48m
Length of Day
12h 55m
Waning Crescent, 14% of the Moon is Illuminated
Sep 1
Waning Crescent
Sep 5
New
Sep 12
First Quarter
Sep 19
Full
Sep 26
Last Quarter

Hourly Weather History & Observations

Time (EDT) Temp. Heat Index Dew Point Humidity Pressure Visibility Wind Dir Wind Speed Gust Speed Precip Events Conditions
12:15 AM 64.4 °F - 64.4 °F 100% 29.97 in 10.0 mi ENE 5.8 mph - N/A   Partly Cloudy
12:35 AM 66.2 °F - 64.4 °F 94% 29.96 in 10.0 mi NE 5.8 mph - N/A   Partly Cloudy
12:55 AM 66.2 °F - 64.4 °F 94% 29.97 in 10.0 mi NW 4.6 mph - N/A   Scattered Clouds
1:15 AM 66.2 °F - 64.4 °F 94% 29.96 in 10.0 mi Calm Calm - N/A   Mostly Cloudy
1:35 AM 66.2 °F - 64.4 °F 94% 29.95 in 10.0 mi East 4.6 mph - N/A   Mostly Cloudy
1:55 AM 64.4 °F - 64.4 °F 100% 29.95 in 10.0 mi Calm Calm - N/A   Partly Cloudy
2:15 AM 64.4 °F - 64.4 °F 100% 29.96 in 8.0 mi Calm Calm - N/A   Scattered Clouds
2:35 AM 64.4 °F - 64.4 °F 100% 29.95 in 8.0 mi Calm Calm - N/A   Mostly Cloudy
2:55 AM 64.4 °F - 64.4 °F 100% 29.95 in 8.0 mi Calm Calm - N/A   Overcast
3:15 AM 64.4 °F - 64.4 °F 100% 29.94 in 7.0 mi Calm Calm - N/A   Mostly Cloudy
3:35 AM 66.2 °F - 64.4 °F 94% 29.96 in 8.0 mi Calm Calm - N/A   Mostly Cloudy
3:55 AM 66.2 °F - 64.4 °F 94% 29.96 in 6.0 mi Calm Calm - N/A   Overcast
4:15 AM 66.2 °F - 64.4 °F 94% 29.95 in 7.0 mi Calm Calm - N/A   Partly Cloudy
4:35 AM 64.4 °F - 64.4 °F 100% 29.95 in 8.0 mi ENE 3.5 mph - N/A   Clear
4:55 AM 64.4 °F - 64.4 °F 100% 29.96 in 6.0 mi Calm Calm - N/A   Scattered Clouds
5:15 AM 64.4 °F - 64.4 °F 100% 29.96 in 6.0 mi Calm Calm - N/A   Mostly Cloudy
5:35 AM 64.4 °F - 64.4 °F 100% 29.95 in 6.0 mi Calm Calm - N/A   Mostly Cloudy
5:55 AM 66.2 °F - 64.4 °F 94% 29.95 in 6.0 mi Calm Calm - N/A   Overcast
6:15 AM 66.2 °F - 64.4 °F 94% 29.94 in 7.0 mi Calm Calm - N/A   Mostly Cloudy
6:35 AM 64.4 °F - 64.4 °F 100% 29.93 in 7.0 mi East 4.6 mph - N/A   Partly Cloudy
6:55 AM 64.4 °F - 64.4 °F 100% 29.94 in 7.0 mi Calm Calm - N/A   Clear
7:15 AM 64.4 °F - 64.4 °F 100% 29.95 in 5.0 mi Calm Calm - N/A   Partly Cloudy
7:35 AM 66.2 °F - 64.4 °F 94% 29.95 in 7.0 mi Calm Calm - N/A   Scattered Clouds
7:55 AM 66.2 °F - 64.4 °F 94% 29.95 in 8.0 mi Variable 3.5 mph - N/A   Partly Cloudy
8:15 AM 66.2 °F - 64.4 °F 94% 29.96 in 7.0 mi ENE 5.8 mph - N/A   Scattered Clouds
8:35 AM 66.2 °F - 64.4 °F 94% 29.96 in 9.0 mi Calm Calm - N/A   Overcast
8:55 AM 66.2 °F - 64.4 °F 94% 29.96 in 9.0 mi Calm Calm - N/A   Mostly Cloudy
9:15 AM 68.0 °F - 66.2 °F 94% 29.96 in 10.0 mi Calm Calm - N/A   Mostly Cloudy
9:35 AM 69.8 °F - 66.2 °F 88% 29.95 in 10.0 mi Calm Calm - N/A   Mostly Cloudy
9:55 AM 71.6 °F - 66.2 °F 83% 29.95 in 8.0 mi East 4.6 mph - N/A   Partly Cloudy
10:15 AM 73.4 °F - 66.2 °F 78% 29.95 in 8.0 mi East 4.6 mph - N/A   Partly Cloudy
10:35 AM 73.4 °F - 66.2 °F 78% 29.96 in 10.0 mi Calm Calm - N/A   Mostly Cloudy
10:55 AM 73.4 °F - 68.0 °F 83% 29.97 in 10.0 mi Variable 3.5 mph - N/A   Overcast
11:15 AM 69.8 °F - 64.4 °F 83% 29.98 in 2.0 mi WNW 5.8 mph - N/A Rain Heavy Rain
11:35 AM 66.2 °F - 66.2 °F 100% 29.98 in 4.0 mi SE 3.5 mph - N/A Rain Rain
11:55 AM 66.2 °F - 66.2 °F 100% 29.97 in 5.0 mi ENE 3.5 mph - N/A Rain Rain
12:15 PM 66.2 °F - 66.2 °F 100% 29.96 in 5.0 mi SE 4.6 mph - N/A   Mostly Cloudy
12:35 PM 66.2 °F - 66.2 °F 100% 29.97 in 6.0 mi Calm Calm - N/A   Light Drizzle
12:55 PM 66.2 °F - 66.2 °F 100% 29.95 in 4.0 mi East 5.8 mph - N/A Rain Light Rain
1:15 PM 69.8 °F - 68.0 °F 94% 29.94 in 5.0 mi East 6.9 mph - N/A   Light Drizzle
1:35 PM 71.6 °F - 66.2 °F 83% 29.93 in 7.0 mi East 5.8 mph - N/A   Scattered Clouds
1:55 PM 73.4 °F - 66.2 °F 78% 29.91 in 5.0 mi Variable 3.5 mph - N/A   Haze
2:15 PM 73.4 °F - 66.2 °F 78% 29.91 in 6.0 mi Calm Calm - N/A   Haze
2:35 PM 73.4 °F - 68.0 °F 83% 29.92 in 8.0 mi West 4.6 mph - N/A   Light Drizzle
2:55 PM 75.2 °F - 68.0 °F 78% 29.92 in 10.0 mi Variable 3.5 mph - N/A   Overcast
3:15 PM 75.2 °F - 69.8 °F 83% 29.92 in 10.0 mi SW 5.8 mph - N/A   Mostly Cloudy
3:35 PM 77.0 °F - 69.8 °F 78% 29.91 in 10.0 mi Variable 4.6 mph - N/A   Partly Cloudy
3:55 PM 77.0 °F - 69.8 °F 78% 29.89 in 10.0 mi West 5.8 mph - N/A   Mostly Cloudy
4:15 PM 78.8 °F - 69.8 °F 74% 29.88 in 10.0 mi Variable 3.5 mph - N/A   Partly Cloudy
4:35 PM 78.8 °F - 69.8 °F 74% 29.89 in 10.0 mi Variable 3.5 mph - N/A   Partly Cloudy
4:55 PM 80.6 °F 83.9 °F 69.8 °F 70% 29.89 in 10.0 mi Variable 3.5 mph - N/A   Clear
5:15 PM 78.8 °F - 68.0 °F 69% 29.89 in 10.0 mi WNW 9.2 mph - N/A   Clear
5:35 PM 80.6 °F 83.9 °F 69.8 °F 70% 29.88 in 10.0 mi Calm Calm - N/A   Clear
5:55 PM 78.8 °F - 68.0 °F 69% 29.88 in 10.0 mi Calm Calm - N/A   Clear
6:15 PM 78.8 °F - 69.8 °F 74% 29.89 in 10.0 mi WNW 4.6 mph - N/A   Clear
6:35 PM 78.8 °F - 69.8 °F 74% 29.89 in 10.0 mi Calm Calm - N/A   Partly Cloudy
6:55 PM 77.0 °F - 69.8 °F 78% 29.90 in 10.0 mi West 3.5 mph - N/A   Clear
7:15 PM 75.2 °F - 69.8 °F 83% 29.90 in 10.0 mi Calm Calm - N/A   Clear
7:35 PM 73.4 °F - 69.8 °F 88% 29.90 in 10.0 mi NNW 3.5 mph - N/A   Clear
7:55 PM 71.6 °F - 69.8 °F 94% 29.90 in 8.0 mi NNW 3.5 mph - N/A   Clear
8:15 PM 69.8 °F - 68.0 °F 94% 29.91 in 10.0 mi Calm Calm - N/A   Clear
8:35 PM 68.0 °F - 68.0 °F 100% 29.91 in 9.0 mi Calm Calm - N/A   Clear
8:55 PM 68.0 °F - 66.2 °F 94% 29.91 in 9.0 mi Calm Calm - N/A   Clear
9:15 PM 66.2 °F - 66.2 °F 100% 29.92 in 8.0 mi Calm Calm - N/A   Clear
9:35 PM 66.2 °F - 66.2 °F 100% 29.93 in 8.0 mi Calm Calm - N/A   Clear
9:55 PM 66.2 °F - 66.2 °F 100% 29.94 in 8.0 mi Calm Calm - N/A   Partly Cloudy
10:15 PM 66.2 °F - 66.2 °F 100% 29.94 in 8.0 mi Calm Calm - N/A   Scattered Clouds
10:35 PM 66.2 °F - 66.2 °F 100% 29.94 in 9.0 mi Calm Calm - N/A   Mostly Cloudy
10:55 PM 66.2 °F - 66.2 °F 100% 29.95 in 9.0 mi Calm Calm - N/A   Scattered Clouds
11:15 PM 66.2 °F - 66.2 °F 100% 29.95 in 7.0 mi Calm Calm - N/A   Mostly Cloudy
11:35 PM 66.2 °F - 66.2 °F 100% 29.95 in 8.0 mi Calm Calm - N/A   Mostly Cloudy
11:55 PM 66.2 °F - 66.2 °F 100% 29.94 in 7.0 mi Calm Calm - N/A   Mostly Cloudy